Location: Newark
(58.8333°N, 23.5833°E)
Time: 06:20:23
(UTC+00:00)

S-56A Canister/Altair - Pass Details

Date: 28 November 2019
Orbit: 633 x 2499 km, 38.9° (Epoch: 06 December)

Event Time Altitude Azimuth Distance (km) Brightness Sun altitude
Rises 16:40:29 0° 259° (WSW) 5,364 13.4 -21.6°
Reaches altitude 10° 16:46:07 10° 241° (WSW) 3,959 12.1 -22.3°
Maximum altitude 16:51:19 16° 209° (SSW) 3,111 11.0 -23.0°
Drops below altitude 10° 16:55:38 10° 176° (S) 3,161 10.6 -23.5°
Enters shadow 16:58:48 - 157° (SSE) 3,681 10.8 -23.9°
